Skip Page Navigation
NASA JPL Caltech
NASA Logo - Jet Propulsion Laboratory + View the NASA Portal
+ Near-Earth Object (NEO) Program
Search JPL
JPL Home Earth Solar System Stars & Galaxies Technology
JPL Solar System Dynamics
BODIES ORBITS EPHEMERIDES TOOLS PHYSICAL DATA DISCOVERY FAQ SITE MAP
JPL Small-Body Database Browser
Search: [ help ]  
68346 (2001 KZ66)
Classification: Apollo [NEO, PHA]          SPK-ID: 2068346
Ephemeris | Orbit Diagram | Orbital Elements | Physical Parameters | Discovery Circumstances | Close-Approach Data ]

[ hide orbit diagram ]
Orbit Diagram
Note: Make sure you have Java enabled on your browser to see the applet. This applet is provided as a 3D orbit visualization tool. The applet was implemented using 2-body methods, and hence should not be used for determining accurate long-term trajectories (over several years or decades) or planetary encounter circumstances. For accurate long-term ephemerides, please instead use our Horizons system.
Orbit Viewer

Additional Notes: the orbits shown in the applet are color coded. The planets are white lines, and the asteroid/comet is a blue line. The bright white line indicates the portion of the orbit that is above the ecliptic plane, and the darker portion is below the ecliptic plane. Likewise for the asteroid/comet orbit, the light blue indicates the portion above the ecliptic plane, and the dark blue the portion below the ecliptic plane.

Orbit Viewer applet originally written and kindly provided by Osamu Ajiki (AstroArts), and further modified by Ron Baalke (JPL).


Orbital Elements at Epoch 2456400.5 (2013-Apr-18.0) TDB
Reference: JPL 88 (heliocentric ecliptic J2000)
 Element Value Uncertainty (1-sigma)   Units 
e .4165793968755693 3.8442e-08  
a 1.5075438987366 1.5422e-08 AU
q .8795321706374629 5.7269e-08 AU
i 16.68839476320882 9.3673e-06 deg
node 219.4477061707791 2.3347e-05 deg
peri 140.1934428838643 2.2641e-05 deg
M 57.20444980139958 3.1286e-05 deg
tp 2456293.068734882850
(2012-Dec-31.56873488)
5.7156e-05 JED
period 676.0882339825899
1.85
1.0375e-05
2.841e-08
d
yr
n .5324748781373858 8.171e-09 deg/d
Q 2.135555626835737 2.1847e-08 AU
  Orbit Determination Parameters
   # obs. used (total)      349  
   # delay obs. used      1  
   # Doppler obs. used      1  
   data-arc span      11855 days (32.46 yr)  
   first obs. used      1979-12-28  
   last obs. used      2012-06-12  
   planetary ephem.      DE405  
   SB-pert. ephem.      SB405-CPV-2  
   condition code      0  
   fit RMS      .53992  
   data source      ORB  
   producer      Otto Matic  
   solution date      2013-Apr-29 15:38:21  

Additional Information
 Earth MOID = .0383869 AU 
 T_jup = 4.389 
[ show covariance matrix ]

Ephemeris | Orbit Diagram | Orbital Elements | Physical Parameters | Discovery Circumstances | Close-Approach Data ]

Physical Parameter Table
Parameter Symbol Value Units Sigma Reference Notes
absolute magnitude H 16.603 mag .7402 88 autocmod 2.5c
rotation period rot_per 2.7 h n/a Asteroid Lightcurve DataBase (Rev. 2013-May-01) Result based on less than full coverage, so that the period may be wrong by 30 percent or so.
Published Reference List:
[Benner, L.A.M.; Nolan, M.C.; Ostro, S.J.; Giorgini, J.D.; et al. (2006) Icarus 182, 474-481.]

68346 (2001 KZ66)          Discovered 2001-May-29 by NEAT at Haleakala (608)
Reference: 20030910/Numbers.arcLast Updated: 2004-04-19

[ show close-approach data ]
Ephemeris | Orbit Diagram | Orbital Elements | Physical Parameters | Discovery Circumstances | Close-Approach Data ]
ABOUT SSD CREDITS/AWARDS PRIVACY/COPYRIGHT GLOSSARY LINKS
FirstGov 2013-May-24 03:07 UT
(server date/time)  
NASA Home Page
Site Manager:   Donald K. Yeomans
Webmaster  Alan B. Chamberlin